Location: Campillo
(40.8621°N, 4.2488°W)
Time: 15:30:38
(UTC+00:00)

Cosmos 1777 Rocket - Pass Details

Date: 04 October 2021
Orbit: 759 x 775 km, 74.0° (Epoch: 23 October)

Event Time Altitude Azimuth Distance (km) Brightness Sun altitude
Rises 03:05:06 0° 349° (NNW) 3,227 7.4 -35.8°
Reaches altitude 10° 03:07:42 10° 358° (N) 2,297 6.7 -35.4°
Maximum altitude 03:12:24 33° 63° (ENE) 1,250 5.5 -34.6°
Drops below altitude 10° 03:17:05 10° 127° (SE) 2,288 6.7 -33.8°
Sets 03:19:39 0° 137° (SE) 3,212 7.4 -33.4°
